When you browse on this site, cookies collect data to enhance your experience and personalize the content and advertising you see.
Visit our Privacy Policy to learn more. By continuing to use the site, you agree to this use of cookies and data.
  • In Portugal
  • List of Countries
  • For 7 days
  • Water Temperature
  • Satellite Maps
  • Weather Map
  • Weather Widgets
  • user-avatar
    Login

    Hourly Weather Sazonovka

    Today, 17 January, Thursday

    Time Temperature Precipitation Wind Pressure Humidity
    00:00 -14°C° 0 mm 3 mps 736 mmHg 97%
    01:00 -14°C° 0 mm 3 mps 736 mmHg 96%
    02:00 -13°C° 0 mm 3 mps 736 mmHg 96%
    03:00 -12°C° 0 mm 4 mps 735 mmHg 96%
    04:00 -12°C° 0 mm 5 mps 735 mmHg 95%
    05:00 -11°C° 0 mm 6 mps 734 mmHg 95%
    06:00 -10°C° 0.1 mm 6 mps 734 mmHg 94%
    07:00 -8°C° 0.1 mm 6 mps 733 mmHg 93%
    08:00 -6°C° 0 mm 6 mps 733 mmHg 92%
    09:00 -7°C° 0.3 mm 7 mps 732 mmHg 92%
    10:00 -6°C° 0.3 mm 7 mps 732 mmHg 92%
    11:00 -6°C° 0.3 mm 8 mps 731 mmHg 92%
    12:00 -5°C° 0.5 mm 8 mps 731 mmHg 92%
    13:00 -4°C° 0.5 mm 8 mps 730 mmHg 92%
    14:00 -2°C° 0.5 mm 8 mps 730 mmHg 92%
    15:00 -2°C° 0.1 mm 8 mps 730 mmHg 91%
    16:00 -2°C° 0.1 mm 8 mps 729 mmHg 90%
    17:00 -3°C° 0.1 mm 9 mps 729 mmHg 89%
    18:00 -2°C° 0.2 mm 8 mps 729 mmHg 89%
    19:00 -2°C° 0.2 mm 8 mps 729 mmHg 89%
    20:00 -2°C° 0.2 mm 8 mps 729 mmHg 90%
    21:00 -2°C° 0.1 mm 7 mps 730 mmHg 90%
    22:00 -2°C° 0.1 mm 7 mps 730 mmHg 91%
    23:00 -2°C° 0.1 mm 6 mps 731 mmHg 91%

    Tomorrow, 18 January, Friday

    Time Temperature Precipitation Wind Pressure Humidity
    00:00 -2°C° 0 mm 6 mps 731 mmHg 91%
    01:00 -2°C° 0 mm 6 mps 732 mmHg 90%
    02:00 -3°C° 0 mm 6 mps 732 mmHg 90%
    03:00 -3°C° 0 mm 6 mps 732 mmHg 89%
    04:00 -2°C° 0 mm 6 mps 733 mmHg 88%
    05:00 -1°C° 0 mm 5 mps 733 mmHg 88%
    06:00 -1°C° 0 mm 5 mps 733 mmHg 89%
    07:00 -2°C° 0 mm 5 mps 733 mmHg 91%
    08:00 -2°C° 0 mm 4 mps 733 mmHg 92%
    09:00 -2°C° 0 mm 4 mps 733 mmHg 93%
    10:00 -2°C° 0 mm 4 mps 733 mmHg 94%
    11:00 -1°C° 0 mm 4 mps 733 mmHg 95%
    12:00 -1°C° 0.2 mm 5 mps 733 mmHg 95%
    13:00 -2°C° 0.2 mm 6 mps 733 mmHg 95%
    14:00 -2°C° 0.2 mm 6 mps 732 mmHg 95%
    15:00 -2°C° 0.3 mm 7 mps 732 mmHg 93%
    16:00 -2°C° 0.3 mm 7 mps 732 mmHg 91%
    17:00 -2°C° 0.3 mm 7 mps 732 mmHg 89%
    18:00 -3°C° 0.1 mm 7 mps 732 mmHg 88%
    19:00 -3°C° 0.1 mm 7 mps 733 mmHg 88%
    20:00 -4°C° 0.1 mm 7 mps 734 mmHg 87%
    21:00 -6°C° 0.1 mm 6 mps 735 mmHg 88%
    22:00 -7°C° 0.1 mm 5 mps 736 mmHg 88%
    23:00 -10°C° 0.1 mm 5 mps 737 mmHg 89%

    Day after tomorrow, 19 January, Saturday

    Time Temperature Precipitation Wind Pressure Humidity
    00:00 -10°C° 0 mm 4 mps 738 mmHg 91%
    01:00 -11°C° 0 mm 4 mps 738 mmHg 92%
    02:00 -12°C° 0 mm 4 mps 739 mmHg 94%
    03:00 -12°C° 0 mm 4 mps 740 mmHg 94%
    04:00 -12°C° 0 mm 4 mps 740 mmHg 95%
    05:00 -12°C° 0 mm 4 mps 740 mmHg 95%
    06:00 -11°C° 0 mm 4 mps 741 mmHg 94%
    07:00 -10°C° 0 mm 4 mps 741 mmHg 92%
    08:00 -10°C° 0 mm 5 mps 741 mmHg 91%
    09:00 -10°C° 0 mm 5 mps 742 mmHg 91%
    10:00 -10°C° 0 mm 5 mps 742 mmHg 91%
    11:00 -10°C° 0 mm 5 mps 742 mmHg 91%
    12:00 -9°C° 0 mm 4 mps 742 mmHg 90%
    13:00 -8°C° 0 mm 4 mps 743 mmHg 90%
    14:00 -8°C° 0 mm 4 mps 743 mmHg 90%
    15:00 -9°C° 0 mm 4 mps 743 mmHg 91%
    16:00 -9°C° 0 mm 4 mps 743 mmHg 92%
    17:00 -10°C° 0 mm 4 mps 743 mmHg 93%
    18:00 -10°C° 0 mm 4 mps 744 mmHg 93%
    19:00 -9°C° 0 mm 3 mps 744 mmHg 94%
    20:00 -9°C° 0 mm 3 mps 744 mmHg 94%
    21:00 -9°C° 0 mm 4 mps 744 mmHg 94%
    22:00 -9°C° 0 mm 4 mps 745 mmHg 94%
    23:00 -8°C° 0 mm 4 mps 745 mmHg 93%

    20 January, Sunday

    Time Temperature Precipitation Wind Pressure Humidity
    00:00 -8°C° 0 mm 4 mps 745 mmHg 93%
    01:00 -7°C° 0 mm 4 mps 745 mmHg 92%
    02:00 -7°C° 0 mm 4 mps 745 mmHg 92%
    03:00 -7°C° 0 mm 4 mps 745 mmHg 92%
    04:00 -7°C° 0 mm 4 mps 745 mmHg 92%
    05:00 -7°C° 0 mm 4 mps 744 mmHg 93%
    06:00 -7°C° 0 mm 5 mps 744 mmHg 92%
    07:00 -7°C° 0 mm 5 mps 744 mmHg 92%
    08:00 -7°C° 0 mm 5 mps 744 mmHg 91%
    09:00 -8°C° 0 mm 6 mps 744 mmHg 91%
    10:00 -8°C° 0 mm 6 mps 744 mmHg 91%
    11:00 -8°C° 0 mm 6 mps 743 mmHg 90%
    12:00 -8°C° 0 mm 6 mps 743 mmHg 89%
    13:00 -8°C° 0 mm 6 mps 743 mmHg 88%
    14:00 -8°C° 0 mm 6 mps 743 mmHg 86%
    15:00 -9°C° 0 mm 6 mps 742 mmHg 87%
    16:00 -9°C° 0 mm 6 mps 742 mmHg 88%
    17:00 -9°C° 0 mm 6 mps 742 mmHg 89%
    18:00 -10°C° 0.1 mm 6 mps 742 mmHg 89%
    19:00 -10°C° 0.1 mm 6 mps 742 mmHg 90%
    20:00 -11°C° 0.1 mm 6 mps 742 mmHg 91%
    21:00 -11°C° 0.2 mm 5 mps 742 mmHg 92%
    22:00 -10°C° 0.2 mm 5 mps 742 mmHg 93%
    23:00 -10°C° 0.2 mm 5 mps 742 mmHg 93%

    21 January, Monday

    Time Temperature Precipitation Wind Pressure Humidity
    00:00 -9°C° 0.2 mm 4 mps 742 mmHg 94%
    01:00 -8°C° 0.2 mm 3 mps 742 mmHg 95%
    02:00 -8°C° 0.2 mm 3 mps 742 mmHg 96%
    03:00 -9°C° 0.1 mm 3 mps 741 mmHg 95%
    04:00 -10°C° 0 mm 3 mps 741 mmHg 95%
    05:00 -12°C° 0 mm 3 mps 741 mmHg 94%
    06:00 -13°C° 0 mm 3 mps 742 mmHg 94%
    07:00 -14°C° 0 mm 3 mps 742 mmHg 94%
    08:00 -15°C° 0 mm 3 mps 742 mmHg 94%
    09:00 -16°C° 0 mm 4 mps 743 mmHg 93%
    10:00 -15°C° 0 mm 4 mps 743 mmHg 92%
    11:00 -14°C° 0 mm 4 mps 743 mmHg 91%
    12:00 -14°C° 0 mm 4 mps 744 mmHg 90%
    13:00 -12°C° 0 mm 3 mps 744 mmHg 90%
    14:00 -12°C° 0 mm 3 mps 744 mmHg 89%
    15:00 -12°C° 0 mm 3 mps 744 mmHg 91%
    16:00 -12°C° 0 mm 3 mps 744 mmHg 94%
    17:00 -13°C° 0 mm 3 mps 744 mmHg 96%
    18:00 -12°C° 0 mm 3 mps 744 mmHg 96%
    19:00 -12°C° 0 mm 3 mps 744 mmHg 95%
    20:00 -10°C° 0 mm 3 mps 744 mmHg 95%
    21:00 -12°C° 0 mm 3 mps 744 mmHg 95%
    22:00 -13°C° 0 mm 3 mps 744 mmHg 96%
    23:00 -14°C° 0 mm 3 mps 744 mmHg 97%

    22 January, Tuesday

    Time Temperature Precipitation Wind Pressure Humidity
    00:00 -14°C° 0 mm 3 mps 744 mmHg 97%
    01:00 -13°C° 0 mm 3 mps 744 mmHg 97%
    02:00 -13°C° 0 mm 3 mps 744 mmHg 97%
    03:00 -12°C° 0 mm 3 mps 744 mmHg 96%
    04:00 -12°C° 0 mm 3 mps 744 mmHg 95%
    05:00 -10°C° 0 mm 3 mps 744 mmHg 95%
    06:00 -11°C° 0 mm 4 mps 744 mmHg 94%
    07:00 -11°C° 0 mm 4 mps 744 mmHg 93%
    08:00 -11°C° 0 mm 4 mps 745 mmHg 93%
    09:00 -10°C° 0 mm 4 mps 745 mmHg 91%
    10:00 -10°C° 0 mm 4 mps 745 mmHg 90%
    11:00 -10°C° 0 mm 4 mps 745 mmHg 88%
    12:00 -10°C° 0 mm 4 mps 745 mmHg 88%
    13:00 -10°C° 0 mm 4 mps 745 mmHg 88%
    14:00 -9°C° 0 mm 3 mps 746 mmHg 87%
    15:00 -10°C° 0 mm 3 mps 746 mmHg 89%
    16:00 -9°C° 0 mm 2 mps 746 mmHg 92%
    17:00 -10°C° 0 mm 2 mps 746 mmHg 94%
    18:00 -12°C° 0 mm 2 mps 746 mmHg 95%
    19:00 -13°C° 0 mm 2 mps 746 mmHg 96%
    20:00 -11°C° 0 mm 1 mps 746 mmHg 98%
    21:00 -11°C° 0 mm 1 mps 746 mmHg 98%
    22:00 -12°C° 0 mm 1 mps 746 mmHg 98%
    23:00 -12°C° 0 mm 0 mps 747 mmHg 98%
    Show more